Find Starlink 2521

NORAD ID: 48648 Int'l Des: 2021-044 Owner: SPXS Country: US Constellation: starlink operational
LEOCIRCULAR

Live Position

Loading 3D Globe...

About Starlink 2521

Description loading...

Upcoming Passes

Passes for default location (London). Set your location on the main map for personalized predictions.

Altitude History

Loading altitude history...

Two-Line Element Set

1 48648U 21044L 26102.86357595 .00001651 00000-0 67846-4 0 9998
2 48648 53.1595 315.1219 0001103 79.8762 280.2363 15.30201997269060
Epoch: Apr 12, 2026 • Age: 37 hours

Current Status

Altitude 478.0 km
Velocity 7.63 km/s
Sub-Earth Point 38.78°N, 108.62°E
Launch Date May 26, 2021
Age 4.8 years
Type internet

Technical Details

Classification Payload
Mass 260.00 kg
Dry Mass 248.00 kg
Total Mass 260.00 kg
Length 0.20 m
Diameter 2.80 m
Span 9.00 m
Shape Box + pan
Manufacturer SPXS
Bus Type Starlink
Phase Status In Orbit
Owner/State SPXS/US

Most Searched